This is the latest recevied weather packets stored in our database for station/object SR1WXW. If no packets are shown the sender has not sent any weather packets the latest 1 day(s).
| Time | Temp. | Humidity | Pressure | Rain* | Wind** | Luminosity | Snow |
|---|---|---|---|---|---|---|---|
| 1778052479 | 7.22° C | 92% | 1000.8 hPa | 4.57 mm | - | - | - |
| 1778051879 | 7.22° C | 92% | 1001 hPa | 3.56 mm | - | - | - |
| 1778051579 | 7.22° C | 92% | 1000.9 hPa | 3.56 mm | - | - | - |
| 1778051279 | 7.22° C | 92% | 1000.8 hPa | 4.06 mm | - | - | - |
| 1778050979 | 7.22° C | 92% | 1000.8 hPa | 3.56 mm | - | - | - |
| 1778050679 | 7.22° C | 92% | 1000.8 hPa | 3.56 mm | - | - | - |
| 1778050079 | 7.22° C | 92% | 1001 hPa | 3.56 mm | - | - | - |
| 1778048879 | 7.22° C | 92% | 1000.9 hPa | 3.56 mm | - | - | - |
| 1778048579 | 7.22° C | 92% | 1000.9 hPa | 3.56 mm | - | - | - |
| 1778048279 | 7.22° C | 92% | 1001.1 hPa | 3.56 mm | - | - | - |
| 1778046479 | 7.22° C | 92% | 1001.4 hPa | 3.56 mm | - | - | - |
| 1778045879 | 7.22° C | 92% | 1001.3 hPa | 2.54 mm | - | - | - |
| 1778043179 | 7.78° C | 91% | 1001.7 hPa | 2.03 mm | - | - | - |
| 1778042879 | 7.78° C | 91% | 1001.8 hPa | 2.54 mm | - | - | - |
| 1778041679 | 8.33° C | 91% | 1001.7 hPa | 2.54 mm | - | - | - |
| 1778041079 | 8.33° C | 91% | 1001.5 hPa | 2.54 mm | - | - | - |
| 1778040779 | 8.89° C | 91% | 1001.5 hPa | 2.03 mm | - | - | - |
| 1778040479 | 8.89° C | 91% | 1001.5 hPa | 2.03 mm | - | - | - |
| 1778039879 | 8.89° C | 91% | 1001.6 hPa | 1.02 mm | - | - | - |
| 1778038979 | 9.44° C | 90% | 1001.8 hPa | 0 mm | - | - | - |
| 1778038079 | 9.44° C | 90% | 1002 hPa | 0 mm | - | - | - |
| 1778037780 | 9.44° C | 90% | 1002 hPa | 0 mm | - | - | - |
| 1778037480 | 9.44° C | 90% | 1002.1 hPa | 0 mm | - | - | - |
| 1778037180 | 9.44° C | 90% | 1002.2 hPa | 0 mm | - | - | - |
| 1778036880 | 10° C | 90% | 1002.2 hPa | 0 mm | - | - | - |
* Rain latest hour (hover to see other rain measurements)
** Current wind speed in m/s (hover to see current wind gust speed)